Showing default

HERMES-5, 63834

Orbit data source: Space-Track

HERMES-5, 63834 is a payload satellite owned by ASI (IT) in SSO that was launched on Sat, 15 Mar 2025 UTC via an FALCON 9 launch vehicle from the Air Force Western Test Range (AFWTR). Payload-class satellites include a variety of spacecraft equipped with specific instruments for various scientific and technological missions. These include communications satellites like Starlink; space stations such as the ISS; scientific satellites like the Hubble; Earth observation satellites from companies like Planet Labs, Umbra, and HawkEye 360; GPS; miniature CubeSats for education and research; and military/defense satellites.

Loading next visibility...
Identifier
63834, 2025-052BQ
Orbit
SSO
Country
Flag of ITIT
Related business
Manufacturer
MILANP/INAFI
Mission
Operational Civil Astronomy
Bus & Motor
CUBESAT 3U, Unknown motor
Mass
5 kg wet, 5 kg dry
Launch date (UTC)
2025-03-15 (1 year ago)
Launch vehicle
FALCON 9
Launch site
Air Force Western Test Range (AFWTR)
Object type
Payload
Rocket body
Debris
Shape & HBR
Box, 0.2 m
Radar Cross Section
0.035 m², Medium (>0.1 m² and < 1m²)

Expand to show TLE details & history
Last TLE update: 2 days ago

TLE from 2 days ago
0 HERMES-5
1 63834U 25052BQ  26173.94823689  .00008691  00000-0  31355-3 0  9990
2 63834  97.3967  68.3432 0006238 117.0242 243.1636 15.28736548 70831
Epoch: 2026-06-22T22:45Z
TLE epoch observation values (Epoch: 2026-06-22T22:45:27.667Z)
Latitude
0.00006°
Longitude
175.85108°
Altitude
484.624 km
Speed
7.622 km/s
True Right ascension
04h 33m 22s
True Declination
0° 00' 00"
Sunlit
Object was in daylight at epoch
Visualization orbit readout
Latitude
Unknown
Longitude
Unknown
Altitude
Unknown
Speed
Unknown
Apparent Right ascension
Unknown
Apparent Declination
Unknown
Sunlit
N/A
Visualization observer readout
Local Sidereal Time
05:44:58
Azimuth
Unknown
Elevation
Unknown
Doppler factor
Unknown
Orbital elements
Apogee altitude
480.818 km
Perigee altitude
472.266 km
Semi-major axis
6,854.679 km
Eccentricity
0.00062
Inclination
97.3967°
RAAN
68.3432°
Arg. of periapsis
117.0242°
True anomaly
243.09984°
Mean anomaly
243.1636°
Eccentric anomaly
243.13172°
Mean motion
3.82439 °/min
Orbital period
94.13 mins
BSTAR
0.00031355
Loading maneuver chart data...
Computing Atmospheric mass density...
Loading historical data...
Loading historical data...
Loading historical data...
Loading historical data...
Loading historical data...
Loading historical data...
Loading historical data...

Documentation

Showing up to 5 results
|